User: anonymous   Login
Location: Unspecified
(0.0000°N, 0.0000°E)
Time: 17:47:59
(UTC+00:00)
Language:

USA 136 - Orbit

View from above orbital plane
View from above orbital plane
View from above satellite
View from above satellite

Ground track
Ground track

The orbit data is extracted from the following two-line orbital elements,

1 25034U 97068A   19045.77057744 0.00000000  00000-0  00000-0 0    07
2 25034  63.4040 173.5365 6046440 282.9094  77.0906  2.00587701    00
Epoch (UTC): 14 February 2019 18:29:37
Eccentricity: 0.6046440
inclination: 63.4040°
perigee height: 4122 km
apogee height: 36238 km
right ascension of ascending node: 173.5365°
argument of perigee: 282.9094°
revolutions per day: 2.00587701
mean anomaly at epoch: 77.0906°
orbit number at epoch: 0

The dashed part of the orbit path shows where the satellite is in the earth's shadow,  

DLR